[[{"header":{"parameterUnit":"m.s-1","parameterCategory":1,"la1":30.2991,"la2":30.254,"lo1":-89.0895,"lo2":-89.0444,"dy":0.0017,"dx":0.0017,"nx":28,"ny":28,"refTime":"2025-07-22T21:00:00:Z","depth":0,"parameterNumber":2,"parameterNumberName":"U-component_of_WINDS"},"data":[0,0,0,0,0,0,0,0,0,0,0,0,0,0,0,0,0,0,0,0,0,0,0,0,0,0,0,0,0,0,0,0,0,0,0,0,0,0,0,0,0,0,0,0,0,0,0,0,0,0,0,0,0,0,0,0,0,0,0.2067,0.2067,0,0.2158,0.2159,0.216,0.2262,0.2263,0.2265,0.2266,0.235,0.235,0.2351,0,0,0,0,0,0,0,0,0,0,0,0,0,0.1969,0.197,0.2066,0.2068,0.2069,0.2158,0.2159,0.216,0.2261,0.2263,0.2265,0.2267,0.2349,0.235,0.2351,0,0,0,0,0,0,0,0,0,0,0,0,0,0.2031,0.1971,0.2066,0.213,0.2137,0.2158,0.2159,0.2161,0.2261,0.2263,0.2265,0.2268,0.2349,0.235,0.2351,0.2314,0,0,0.2355,0.2356,0,0,0,0,0,0,0,0,0.2027,0.2034,0.212,0.2126,0.2133,0.2201,0.2156,0.2212,0.226,0.2213,0.2266,0.2269,0.2298,0.2303,0.2315,0.2317,0.2321,0.2355,0.2356,0.2357,0.2357,0,0,0,0,0,0,0,0.2023,0.2031,0.2102,0.2121,0.2129,0.2151,0.2162,0.2167,0.2241,0.2218,0.2225,0.2235,0.2302,0.2314,0.2318,0.2322,0.2355,0.2356,0.2357,0.2358,0.2297,0.2295,0,0,0,0,0,0,0.201,0.2026,0.2099,0.2105,0.2085,0.2151,0.2163,0.2177,0.2242,0.2254,0.2233,0.224,0.231,0.2316,0.2321,0.2281,0.2356,0.2358,0.2358,0.2299,0.2297,0.2294,0,0,0,0,0,0,0.2008,0.2016,0.2096,0.2068,0.208,0.215,0.2164,0.2177,0.219,0.2254,0.2266,0.2232,0.2312,0.2319,0.2315,0.2285,0.2358,0.2359,0.2302,0.2298,0.2295,0.22,0,0,0,0,0,0,0.2004,0.2014,0.2003,0.2067,0.2081,0.2091,0.2162,0.2177,0.2193,0.2202,0.2256,0.2267,0.2315,0.2313,0.2316,0.2288,0.236,0.2305,0.2301,0.2296,0.2206,0.2193,0.2183,0,0,0,0,0,0.2001,0.197,0.2002,0.201,0.2069,0.2089,0.2097,0.2155,0.219,0.2177,0.2218,0.2265,0.2288,0.2312,0.2316,0.2288,0.2307,0.2302,0.2297,0.2211,0.2196,0.2183,0,0,0,0,0,0,0.1897,0.198,0.2016,0.2006,0.204,0.2106,0.2093,0.2137,0.2159,0.2167,0.2235,0.2246,0.2233,0.226,0.2285,0.2254,0.2304,0.23,0.2237,0.2224,0.2212,0.2205,0.2361,0,0,0,0,0,0.1873,0.1886,0.1957,0.1941,0.1957,0.2021,0.2032,0.2075,0.2111,0.2125,0.2166,0.2197,0.2211,0.2219,0.2235,0.221,0.2222,0.2193,0.2181,0.2172,0.2166,0.2154,0.2141,0.2277,0.2277,0.2277,0,0,0.1824,0.1871,0.1874,0.1921,0.1953,0.1962,0.2033,0.2039,0.2045,0.2125,0.2125,0.2155,0.2194,0.2179,0.2175,0.2201,0.2132,0.2165,0.2157,0.2157,0.2147,0.2134,0.2123,0.2273,0.2274,0.2274,0,0,0.1738,0.1776,0.1767,0.1798,0.1846,0.189,0.1887,0.1947,0.1972,0.1973,0.2033,0.2039,0.2063,0.2088,0.2104,0.2028,0.2071,0.2031,0.197,0.1957,0.1946,0.1937,0.1909,0.1898,0.2026,0.2026,0.2025,0,0.167,0.1689,0.1756,0.176,0.1777,0.1854,0.1844,0.1869,0.1918,0.1927,0.1957,0.1988,0.2019,0.2011,0.1993,0.2003,0.2001,0.2025,0.1943,0.1935,0.1927,0.1901,0.189,0.202,0.2021,0.2021,0.2022,0,0.1602,0.1614,0.16,0.165,0.1667,0.1663,0.1726,0.1734,0.1774,0.1813,0.1812,0.1853,0.1879,0.188,0.1918,0.1877,0.1892,0.1931,0.1983,0.1908,0.1884,0.1875,0.2013,0.2015,0.2016,0.2018,0,0,0.1452,0.1541,0.1535,0.1558,0.1617,0.1626,0.1624,0.1653,0.1658,0.1689,0.1688,0.1706,0.1743,0.1761,0.1802,0.1791,0.1727,0.1832,0.1834,0.181,0.1682,0.1652,0.1639,0.1757,0.1755,0.1754,0.1679,0,0.1377,0.1384,0.1444,0.1431,0.1442,0.1515,0.1513,0.1547,0.1583,0.1595,0.1633,0.1645,0.1694,0.1705,0.1697,0.1737,0.1702,0.1743,0.1753,0.1753,0.1741,0.1627,0.1595,0.1522,0.167,0.1669,0.1667,0,0.1289,0.1319,0.1309,0.1369,0.1375,0.1373,0.1405,0.1416,0.1455,0.1482,0.1502,0.155,0.1549,0.1598,0.1597,0.1623,0.1631,0.165,0.1649,0.1651,0.1705,0.1625,0.1501,0.1489,0.1654,0.1655,0.1656,0,0.1181,0.1218,0.1217,0.1235,0.1304,0.1301,0.1329,0.1371,0.1384,0.141,0.1419,0.1442,0.1455,0.1471,0.1523,0.1554,0.1514,0.1568,0.1534,0.1533,0.1522,0.1522,0.1396,0.1528,0.1528,0.1528,0.1529,0,0.1089,0.108,0.1169,0.1168,0.1159,0.1227,0.1214,0.1249,0.1285,0.129,0.1353,0.1355,0.1424,0.1433,0.1473,0.1465,0.147,0.1489,0.15,0.1484,0.1481,0.1489,0.1495,0.1526,0.1526,0.1527,0.1527,0,0.0966,0.1026,0.103,0.1096,0.1112,0.1102,0.1158,0.1157,0.1198,0.1203,0.1208,0.127,0.1284,0.1338,0.1363,0.139,0.1368,0.139,0.1356,0.1363,0.1326,0.1328,0.1199,0.1185,0.1327,0.1326,0.1324,0,0.0904,0.0899,0.0966,0.0975,0.1002,0.1016,0.1031,0.1096,0.1109,0.1153,0.1147,0.1166,0.1186,0.1203,0.1249,0.1268,0.129,0.1243,0.1293,0.1276,0.1288,0.1287,0.1286,0.1232,0.123,0.1229,0.1228,0,0.0786,0.0816,0.0838,0.0869,0.0886,0.0913,0.0943,0.0946,0.1019,0.1029,0.1046,0.1061,0.1089,0.1106,0.1134,0.1159,0.1204,0.1212,0.1205,0.1187,0.1168,0.1177,0.1326,0.1214,0.1216,0.1217,0.1217,0.1218,0.0691,0.069,0.0737,0.0758,0.0789,0.0816,0.082,0.0862,0.0878,0.0909,0.0945,0.0957,0.0995,0.1037,0.1058,0.1066,0.1092,0.1082,0.1079,0.1075,0.1067,0.1168,0.1071,0.1072,0.1072,0.1073,0.1073,0,0.0575,0.061,0.063,0.0672,0.0688,0.0733,0.0769,0.0778,0.0789,0.0822,0.0841,0.0859,0.0877,0.0924,0.0945,0.0942,0.0963,0.0945,0.0946,0.095,0.1043,0.1047,0.0928,0.0928,0.0928,0.0928,0.0928,0.0928,0.0517,0.0518,0.0554,0.0569,0.0603,0.0619,0.0635,0.0659,0.0686,0.0705,0.0721,0.0753,0.0791,0.0816,0.0833,0.0846,0.085,0.0825,0.0844,0.093,0.0944,0.0957,0.0961,0.0826,0.0826,0.0751,0.075,0.075]},{"header":{"parameterUnit":"m.s-1","parameterCategory":1,"la1":30.2991,"la2":30.254,"lo1":-89.0895,"lo2":-89.0444,"dy":0.0017,"dx":0.0017,"nx":28,"ny":28,"refTime":"2025-07-22T21:00:00:Z","depth":0,"parameterNumber":3,"parameterNumberName":"V-component_of_WINDS"},"data":[0,0,0,0,0,0,0,0,0,0,0,0,0,0,0,0,0,0,0,0,0,0,0,0,0,0,0,0,0,0,0,0,0,0,0,0,0,0,0,0,0,0,0,0,0,0,0,0,0,0,0,0,0,0,0,0,0,0,0.7288,0.7285,0,0.6954,0.695,0.6946,0.6846,0.6848,0.6849,0.6851,0.6501,0.649,0.648,0,0,0,0,0,0,0,0,0,0,0,0,0,0.7837,0.7828,0.7289,0.7285,0.728,0.6954,0.695,0.6945,0.6846,0.6848,0.685,0.6852,0.6505,0.6492,0.6479,0,0,0,0,0,0,0,0,0,0,0,0,0,0.756,0.7825,0.7289,0.7192,0.718,0.6955,0.6949,0.6944,0.6845,0.6848,0.685,0.6853,0.6509,0.6493,0.6477,0.6323,0,0,0.6427,0.642,0,0,0,0,0,0,0,0,0.7576,0.754,0.721,0.7198,0.7184,0.6944,0.7015,0.6735,0.6844,0.6972,0.6851,0.6854,0.6646,0.6618,0.655,0.6307,0.6292,0.6425,0.6415,0.6408,0.6404,0,0,0,0,0,0,0,0.7596,0.7554,0.7156,0.7205,0.7189,0.7163,0.7126,0.6961,0.6798,0.6961,0.6953,0.6915,0.6639,0.6566,0.6541,0.6287,0.6426,0.6411,0.6401,0.6395,0.5903,0.5899,0,0,0,0,0,0,0.7632,0.7571,0.7166,0.7146,0.7391,0.7151,0.711,0.7018,0.68,0.6769,0.6913,0.6912,0.6592,0.656,0.6528,0.6334,0.6408,0.6393,0.6384,0.5906,0.5902,0.5898,0,0,0,0,0,0,0.7644,0.7597,0.718,0.7356,0.7301,0.7139,0.7037,0.701,0.6937,0.6764,0.6734,0.6868,0.6593,0.6551,0.6376,0.632,0.6386,0.6371,0.591,0.5905,0.59,0.5945,0,0,0,0,0,0,0.7661,0.7602,0.7543,0.7356,0.7292,0.7035,0.7033,0.7002,0.691,0.6904,0.6714,0.6684,0.6592,0.6401,0.636,0.6299,0.6358,0.5914,0.5907,0.5902,0.5947,0.5942,0.5938,0,0,0,0,0,0.7681,0.7567,0.7541,0.7492,0.7215,0.7032,0.6995,0.6893,0.6906,0.6844,0.6733,0.669,0.6334,0.6384,0.6336,0.627,0.5917,0.5909,0.5902,0.595,0.5943,0.5938,0,0,0,0,0,0,0.7749,0.7541,0.7509,0.7332,0.7201,0.7015,0.6934,0.6889,0.675,0.675,0.6628,0.6586,0.6419,0.6327,0.6386,0.6111,0.6124,0.6107,0.6176,0.6169,0.6164,0.6188,0.6344,0,0,0,0,0,0.7745,0.7615,0.7439,0.73,0.7236,0.7097,0.7013,0.6947,0.6805,0.6748,0.6624,0.6487,0.6343,0.6251,0.611,0.5935,0.5891,0.5866,0.5862,0.5858,0.5844,0.5745,0.5731,0.5874,0.5875,0.5875,0,0,0.7731,0.7602,0.7527,0.731,0.7201,0.7068,0.7051,0.691,0.681,0.6726,0.6553,0.6458,0.6296,0.6121,0.6037,0.6039,0.5796,0.5849,0.5848,0.5834,0.5736,0.5722,0.571,0.587,0.587,0.5871,0,0,0.764,0.753,0.7402,0.7293,0.7129,0.7038,0.7008,0.683,0.6764,0.659,0.6524,0.6403,0.6159,0.6047,0.5958,0.5828,0.5783,0.5786,0.5758,0.5663,0.5652,0.5641,0.5594,0.5578,0.5773,0.5773,0.5773,0,0.7644,0.7442,0.7341,0.7204,0.7111,0.7033,0.6902,0.6801,0.6598,0.6534,0.6541,0.6235,0.612,0.5917,0.5887,0.5818,0.5778,0.5805,0.5662,0.565,0.5639,0.5592,0.5575,0.5774,0.5774,0.5774,0.5774,0,0.7455,0.7317,0.7233,0.7042,0.694,0.6807,0.6684,0.6592,0.6536,0.6444,0.6268,0.6129,0.5958,0.5906,0.5848,0.5695,0.5701,0.5687,0.5697,0.5628,0.5582,0.5564,0.5776,0.5776,0.5775,0.5775,0,0,0.7393,0.7151,0.7122,0.7035,0.685,0.674,0.6604,0.644,0.6363,0.6227,0.6109,0.5907,0.5893,0.5792,0.5721,0.5638,0.5544,0.5633,0.5627,0.562,0.5366,0.5377,0.5358,0.5515,0.5511,0.5508,0.5379,0,0.7277,0.7032,0.6938,0.6737,0.6608,0.6534,0.6415,0.6288,0.62,0.6076,0.5978,0.5836,0.5829,0.5768,0.5683,0.5574,0.5491,0.5582,0.5401,0.5396,0.5441,0.5334,0.5344,0.5229,0.5361,0.5357,0.5355,0,0.7107,0.6972,0.676,0.6592,0.6534,0.643,0.6273,0.6156,0.6011,0.5953,0.5843,0.5778,0.5632,0.5655,0.5451,0.5515,0.5436,0.5372,0.5365,0.5341,0.5369,0.5306,0.5189,0.5172,0.5326,0.5328,0.5331,0,0.7082,0.6847,0.669,0.6618,0.6419,0.6347,0.626,0.6118,0.6026,0.5889,0.5828,0.5675,0.5591,0.5474,0.5369,0.5396,0.5175,0.5189,0.5121,0.5123,0.5074,0.5078,0.4942,0.5028,0.5029,0.5029,0.5029,0,0.696,0.6832,0.6676,0.6579,0.6434,0.6328,0.6186,0.6095,0.597,0.5852,0.5779,0.5671,0.5541,0.5416,0.5333,0.5177,0.5139,0.5087,0.5066,0.5092,0.5098,0.5036,0.504,0.5024,0.5025,0.5026,0.5027,0,0.6905,0.6795,0.6619,0.6447,0.64,0.6301,0.6152,0.6055,0.5966,0.5819,0.5778,0.5636,0.5485,0.5371,0.5174,0.5119,0.4952,0.4931,0.5001,0.499,0.4927,0.4934,0.4744,0.4713,0.4823,0.4822,0.4822,0,0.6833,0.6734,0.6552,0.647,0.6384,0.6252,0.6159,0.6052,0.5957,0.5787,0.571,0.5554,0.5424,0.5186,0.5064,0.4914,0.4887,0.4831,0.4863,0.4893,0.4884,0.489,0.4879,0.4826,0.4825,0.4824,0.4824,0,0.6717,0.6668,0.6538,0.6389,0.6281,0.6158,0.6034,0.597,0.584,0.5738,0.5584,0.5484,0.5285,0.5131,0.4969,0.4878,0.4828,0.4816,0.4791,0.4815,0.4859,0.4833,0.4987,0.4819,0.482,0.482,0.482,0.482,0.6649,0.6558,0.6417,0.6274,0.617,0.6056,0.5957,0.5856,0.5727,0.5558,0.5502,0.5343,0.5202,0.498,0.4888,0.4761,0.476,0.4726,0.4716,0.4709,0.471,0.4883,0.4731,0.4731,0.4731,0.4731,0.4731,0,0.6528,0.6435,0.6305,0.6135,0.6023,0.5991,0.5852,0.576,0.5621,0.5495,0.537,0.5193,0.5044,0.4913,0.4758,0.4682,0.4656,0.4645,0.4648,0.4628,0.472,0.4756,0.4669,0.4669,0.4669,0.4669,0.4669,0.4669,0.6452,0.6295,0.6231,0.6022,0.5928,0.5774,0.5698,0.5592,0.5491,0.5298,0.5175,0.5092,0.4963,0.4799,0.4661,0.4626,0.4571,0.4566,0.4525,0.4613,0.4621,0.4628,0.4661,0.4555,0.4555,0.4442,0.4441,0.444]}]]